Torna al catalogo

CZ-4 DEB

AttivoPO
NORAD 26436·DEBRIS·🇨🇳 China

Lanciato Oct 14, 1999 da Taiyuan Satellite Launch Center

Loading…

Prossimi Passaggi (prossime 24 ore)

TLE

AggiornatoSource: Space-Track

Epoca: Sep 14, 2026, 10:01 UTC

1 26436U 99057KH  26257.41796480 -.00000012  00000-0  23924-4 0  9990
2 26436  99.5117 320.2106 0704293  33.3954 330.9592 12.98273934614427

Traccia CZ-4 DEB in tempo reale con AllMySat

Download on the App Store